2023/09/22 00:00:00,24.2,19.0
2023/09/22 00:10:00,27.6,19.2
2023/09/22 00:20:00,24.4,18.9
2023/09/22 00:30:00,24.4,18.9
2023/09/22 00:40:00,24.2,19.0
2023/09/22 00:50:00,24.2,19.1
2023/09/22 01:00:00,24.0,18.8
2023/09/22 01:10:00,23.9,19.1
2023/09/22 01:20:00,23.9,19.0
2023/09/22 01:30:00,24.1,19.1
2023/09/22 01:40:00,24.1,19.2
2023/09/22 01:50:00,24.2,19.0
2023/09/22 02:00:00,24.2,18.9
2023/09/22 02:10:00,24.2,19.0
2023/09/22 02:20:00,24.1,19.0
2023/09/22 02:30:00,24.1,18.9
2023/09/22 02:40:00,24.2,19.2
2023/09/22 02:50:00,24.1,18.8
2023/09/22 03:00:00,24.0,19.1
2023/09/22 03:10:00,24.0,19.1
2023/09/22 03:20:00,24.1,19.1
2023/09/22 03:30:00,24.1,19.0
2023/09/22 03:40:00,24.1,18.8
2023/09/22 03:50:00,24.0,18.9
2023/09/22 04:00:00,23.9,19.0
2023/09/22 04:10:00,23.9,19.0
2023/09/22 04:20:00,23.9,18.9
2023/09/22 04:30:00,23.9,19.6
2023/09/22 04:40:00,23.9,19.0
2023/09/22 04:50:00,24.0,18.9
2023/09/22 05:00:00,24.0,19.0
2023/09/22 05:10:00,24.0,18.7
2023/09/22 05:20:00,24.0,18.7
2023/09/22 05:30:00,23.9,18.9
2023/09/22 05:40:00,24.1,18.9
2023/09/22 05:50:00,24.0,18.8
2023/09/22 06:00:00,24.0,18.8
2023/09/22 06:10:00,24.0,18.9
2023/09/22 06:20:00,24.0,19.0
2023/09/22 06:30:00,24.2,18.8
2023/09/22 06:40:00,24.1,18.7
2023/09/22 06:50:00,24.2,18.7
2023/09/22 07:00:00,24.2,18.9
2023/09/22 07:10:00,24.2,19.4
2023/09/22 07:20:00,24.2,19.2
2023/09/22 07:30:00,24.5,19.4
2023/09/22 07:40:00,24.5,19.6
2023/09/22 07:50:00,24.5,19.7
2023/09/22 08:00:00,24.4,20.3
2023/09/22 08:10:00,24.6,19.9
2023/09/22 08:20:00,24.5,19.8
2023/09/22 08:30:00,24.1,20.0
2023/09/22 08:40:00,24.4,19.5
2023/09/22 08:50:00,24.3,19.3
2023/09/22 09:00:00,24.5,19.3
2023/09/22 09:10:00,25.4,19.2
2023/09/22 09:20:00,---,19.1
2023/09/22 09:30:00,24.1,19.3
2023/09/22 09:40:00,24.6,19.2
2023/09/22 09:50:00,24.7,19.3
2023/09/22 10:00:00,24.8,19.5
2023/09/22 10:10:00,24.9,19.7
2023/09/22 10:20:00,24.7,20.2
2023/09/22 10:30:00,24.7,20.3
2023/09/22 10:40:00,24.5,20.3
2023/09/22 10:50:00,24.7,20.7
2023/09/22 11:00:00,25.1,21.6
2023/09/22 11:10:00,25.0,20.2
2023/09/22 11:20:00,25.0,21.2
2023/09/22 11:30:00,26.0,20.5
2023/09/22 11:40:00,24.9,20.9
2023/09/22 11:50:00,25.0,20.4
2023/09/22 12:00:00,24.8,20.8
2023/09/22 12:10:00,24.8,20.9
2023/09/22 12:20:00,24.9,21.4
2023/09/22 12:30:00,24.8,21.9
2023/09/22 12:40:00,24.9,22.4
2023/09/22 12:50:00,24.6,22.6
2023/09/22 13:00:00,24.7,23.6
2023/09/22 13:10:00,24.2,23.8
2023/09/22 13:20:00,23.8,23.0
2023/09/22 13:30:00,23.9,22.4
2023/09/22 13:40:00,24.5,22.7
2023/09/22 13:50:00,24.3,23.0
2023/09/22 14:00:00,24.3,22.3
2023/09/22 14:10:00,24.4,21.9
2023/09/22 14:20:00,24.5,21.6
2023/09/22 14:30:00,24.6,21.4
2023/09/22 14:40:00,24.5,21.2
2023/09/22 14:50:00,24.6,21.1
2023/09/22 15:00:00,24.6,21.3
2023/09/22 15:10:00,24.4,21.0
2023/09/22 15:20:00,24.5,21.2
2023/09/22 15:30:00,24.6,20.8
2023/09/22 15:40:00,24.4,20.9
2023/09/22 15:50:00,24.4,20.8
2023/09/22 16:00:00,24.4,20.8
2023/09/22 16:10:00,24.5,20.7
2023/09/22 16:20:00,24.5,20.8
2023/09/22 16:30:00,24.7,21.5
2023/09/22 16:40:00,24.5,20.5
2023/09/22 16:50:00,24.3,20.7
2023/09/22 17:00:00,24.3,20.7
2023/09/22 17:10:00,24.4,20.7
2023/09/22 17:20:00,24.2,20.4
2023/09/22 17:30:00,24.3,20.4
2023/09/22 17:40:00,24.5,20.2
2023/09/22 17:50:00,24.4,20.2
2023/09/22 18:00:00,24.4,19.8
2023/09/22 18:10:00,24.4,19.8
2023/09/22 18:20:00,24.4,20.1
2023/09/22 18:30:00,24.4,19.5
2023/09/22 18:40:00,24.5,19.6
2023/09/22 18:50:00,24.4,19.5
2023/09/22 19:00:00,24.5,19.8
2023/09/22 19:10:00,24.5,19.6
2023/09/22 19:20:00,24.5,19.6
2023/09/22 19:30:00,24.5,19.5
2023/09/22 19:40:00,24.5,19.2
2023/09/22 19:50:00,24.4,19.3
2023/09/22 20:00:00,24.4,19.2
2023/09/22 20:10:00,24.4,19.1
2023/09/22 20:20:00,24.3,19.1
2023/09/22 20:30:00,24.3,18.6
2023/09/22 20:40:00,24.3,18.6
2023/09/22 20:50:00,24.2,18.4
2023/09/22 21:00:00,24.3,18.4
2023/09/22 21:10:00,24.2,18.1
2023/09/22 21:20:00,24.1,17.9
2023/09/22 21:30:00,24.1,17.8
2023/09/22 21:40:00,24.1,17.4
2023/09/22 21:50:00,24.1,17.5
2023/09/22 22:00:00,24.0,17.2
2023/09/22 22:10:00,23.8,17.0
2023/09/22 22:20:00,23.8,17.3
2023/09/22 22:30:00,23.9,17.0
2023/09/22 22:40:00,23.9,17.0
2023/09/22 22:50:00,23.9,16.9
2023/09/22 23:00:00,23.9,16.9
2023/09/22 23:10:00,23.9,16.7
2023/09/22 23:20:00,23.8,16.9
2023/09/22 23:30:00,23.7,16.6
2023/09/22 23:40:00,23.8,16.3
2023/09/22 23:50:00,23.7,16.2
